Location: Corcelles
(46.1547°N, 4.7234°E)
Time: 03:52:50
(UTC+00:00)

SL-16 R/B - Pass Details

Date: 14 July 2020
Orbit: 985 x 1006 km, 99.5° (Epoch: 06 August)

Event Time Altitude Azimuth Distance (km) Brightness Sun altitude
Exits shadow 00:11:55 11° 123° (ESE) 2,713 4.6 -22.0°
Maximum altitude 00:17:14 34° 62° (ENE) 1,593 3.9 -21.9°
Drops below altitude 10° 00:22:46 10° 0° (N) 2,793 6.0 -21.7°
Sets 00:25:29 0° 352° (N) 3,748 6.8 -21.7°
